Apalachicola, FL

12:04 AM EDT on April 29, 2017 (GMT -0400)
Apalachicola Municipal

Weather History for KAAF - March, 2013

Change the Weather History Date:

Friday, March 15, 2013

  Actual Average Record
Temperature  
Mean Temperature 53 °F 60 °F  
Max Temperature 66 °F 71 °F 82 °F (1957)
Min Temperature 39 °F 50 °F 31 °F (1993)
Degree Days  
Heating Degree Days 12    
Month to date heating degree days 164  
Since 1 July heating degree days 1003  
Cooling Degree Days 0    
Month to date cooling degree days 1  
Year to date cooling degree days 56  
Growing Degree Days 2 (Base 50)    
Moisture  
Dew Point 38 °F    
Average Humidity 55    
Maximum Humidity 79    
Minimum Humidity 30    
Precipitation  
Precipitation 0.00 in 0.18 in 2.55 in (1959)
Month to date precipitation 1.04 2.57  
Year to date precipitation 11.57 11.12  
Sea Level Pressure  
Sea Level Pressure 30.25 in    
Wind  
Wind Speed 5 mph (SSW)    
Max Wind Speed 14 mph    
Max Gust Speed -    
Visibility 10 miles    
Events      
T = Trace of Precipitation, MM = Missing Value Source: NWS Daily Summary

Daily Weather History Graph

Daily Weather History Graph

Search for Another Location

Airport or City:

Trip Planner

Search our weather history database for the weather conditions in past years. The results will help you decide how hot, cold, wet, or windy it might be!

Date:

Astronomy

Mar. 15, 2013 Rise Set
Actual Time 7:49 AM EDT 7:48 PM EDT
Civil Twilight 7:25 AM EDT 8:12 PM EDT
Nautical Twilight 6:58 AM EDT 8:40 PM EDT
Astronomical Twilight 6:30 AM EDT 9:07 PM EDT
Moon 9:58 AM EDT (3/15) 11:40 PM EDT (3/15)
Length of Visible Light 12h 46m
Length of Day
11h 59m
Waxing Crescent, 15% of the Moon is Illuminated
Mar 15
Waxing Crescent
Mar 19
First Quarter
Mar 27
Full
Apr 3
Last Quarter
Apr 10
New

Hourly Weather History & Observations

Time (EDT) Temp. Windchill Dew Point Humidity Pressure Visibility Wind Dir Wind Speed Gust Speed Precip Events Conditions
12:53 AM 42.1 °F 40.2 °F 34.0 °F 73% 30.30 in 10.0 mi North 3.5 mph - N/A   Clear
1:53 AM 46.9 °F - 33.1 °F 59% 30.29 in 10.0 mi WNW 3.5 mph - N/A   Clear
2:53 AM 43.0 °F - 33.1 °F 68% 30.28 in 10.0 mi Calm Calm - N/A   Clear
3:53 AM 43.0 °F - 35.1 °F 74% 30.26 in 10.0 mi Calm Calm - N/A   Clear
4:53 AM 41.0 °F - 35.1 °F 79% 30.25 in 10.0 mi Calm Calm - N/A   Clear
5:53 AM 41.0 °F - 34.0 °F 76% 30.26 in 10.0 mi Calm Calm - N/A   Clear
6:53 AM 39.0 °F - 34.0 °F 82% 30.27 in 10.0 mi Calm Calm - N/A   Clear
7:53 AM 41.0 °F - 35.1 °F 79% 30.29 in 10.0 mi Calm Calm - N/A   Clear
8:53 AM 46.9 °F - 39.9 °F 77% 30.30 in 10.0 mi Calm Calm - N/A   Clear
9:53 AM 55.9 °F - 35.1 °F 45% 30.31 in 10.0 mi East 4.6 mph - N/A   Clear
10:53 AM 62.1 °F - 30.9 °F 31% 30.31 in 9.0 mi Variable 4.6 mph - N/A   Clear
11:53 AM 62.1 °F - 34.0 °F 35% 30.32 in 10.0 mi SE 5.8 mph - N/A   Clear
12:53 PM 64.0 °F - 37.0 °F 37% 30.30 in 10.0 mi South 9.2 mph - N/A   Clear
1:53 PM 64.0 °F - 35.1 °F 34% 30.27 in 10.0 mi South 11.5 mph - N/A   Clear
2:53 PM 64.0 °F - 41.0 °F 43% 30.25 in 10.0 mi South 11.5 mph - N/A   Clear
3:53 PM 64.9 °F - 39.0 °F 39% 30.22 in 10.0 mi SSW 13.8 mph - N/A   Clear
4:53 PM 64.9 °F - 39.9 °F 40% 30.20 in 10.0 mi SW 12.7 mph - N/A   Clear
5:53 PM 64.9 °F - 39.9 °F 40% 30.20 in 10.0 mi WSW 10.4 mph - N/A   Clear
6:53 PM 64.0 °F - 41.0 °F 43% 30.19 in 10.0 mi WSW 11.5 mph - N/A   Clear
7:53 PM 60.1 °F - 44.1 °F 55% 30.19 in 10.0 mi SW 5.8 mph - N/A   Clear
8:53 PM 59.0 °F - 46.0 °F 62% 30.20 in 10.0 mi SW 4.6 mph - N/A   Clear
9:53 PM 54.0 °F - 45.0 °F 72% 30.20 in 10.0 mi Calm Calm - N/A   Clear
10:53 PM 51.1 °F - 44.1 °F 77% 30.20 in 10.0 mi Calm Calm - N/A   Clear
11:53 PM 52.0 °F - 45.0 °F 77% 30.19 in 10.0 mi Calm Calm - N/A   Clear